sat.trackr.live / text

‹ back to catalog

YAOGAN-30 01

NORAD 41473 · 2016-029A

PAYLOAD ACTIVE UNKNOWN

§ Identity

Operator
Country
PRC
Launch date
2016-05-15
Launch site
JSC
Launch vehicle
Mass (kg)
RCS (m²)
3.71

External: N2YO · Heavens-Above · Gunter

§ Orbital elements

Epoch: 2026-05-25T04:17:23.055648Z

Period
97.55 min
Inclination
97.9026°
Eccentricity
0.0014473
Mean motion
14.76238523 rev/d
Perigee alt
631.1 km
Apogee alt
651.4 km
Semi-major
7,019.4 km
B*
1.0034e-4
RAAN
195.5734°
Arg perigee
311.5154°
Mean anomaly
48.4813°
Rev number
54,027

§ Raw data

YAOGAN-30 011 41473U 16029A   26145.17873907  .00000645  00000+0  10034-3 0  99922 41473  97.9026 195.5734 0014473 311.5154  48.4813 14.76238523540274

JSON: /api/v1/satellites/41473 · /tle

For live sub-satellite position, see the globe view (requires WebGL).

§ Visibility from observer

Set your observer location to see the next 7 days of passes ≥ 10°. The values pass through the URL so the page stays shareable.

No JS? Fill the form by hand. The geolocation button needs JavaScript.